Probability
100 100 100 100 3 0 0 0 0 0 0 0 0 0 0 0 0 0 0 42 13 55 97 100 100 100 100 100 100 100 100 100 100 100 97 97 97 97 97 100 100 100 100 100 100 100 100 100 100
97 100 94 35 0 0 0 0 0 0 0 0 0 0 0 0 0 0 42 45 29 71 97 97 100 100 100 100 100 100 100 100 100 100 100 97 97 97 94 100 100 97 97 100 97 100 100 97 97
100 100 39 10 0 0 0 0 0 0 0 0 0 0 0 0 0 0 48 55 52 81 100 100 100 100 100 100 100 100 100 100 100 100 97 94 100 97 100 94 97 97 97 90 94 97 97 100 97
100 61 6 0 0 0 0 0 0 0 0 0 0 0 0 0 0 16 71 61 58 84 97 100 100 100 100 100 100 100 100 100 100 100 97 100 100 100 94 97 94 94 87 84 87 94 94 97 100
48 10 0 0 0 0 0 0 0 0 0 0 0 0 0 0 10 77 68 55 45 77 97 100 100 100 100 100 100 100 100 100 100 97 97 97 94 97 97 94 84 87 81 77 77 81 84 87 100
0 0 0 0 0 0 0 0 0 0 0 0 0 0 0 0 29 77 71 29 32 71 97 100 100 100 100 100 100 100 100 100 100 97 97 100 100 90 94 94 68 52 48 55 48 65 74 90 97
0 3 0 0 0 0 0 0 0 0 0 0 0 0 0 0 0 42 74 52 55 77 94 97 100 100 100 100 100 100 100 100 100 100 97 100 100 94 97 100 74 35 23 16 16 23 35 74 84
0 0 0 0 0 0 0 0 0 0 0 0 0 0 0 0 0 23 71 74 81 87 90 100 100 100 100 100 100 100 100 100 100 100 100 100 100 100 100 100 81 32 3 0 0 0 13 26 52
0 0 0 0 0 0 0 0 0 0 0 0 0 0 0 0 3 13 65 81 94 97 94 100 100 100 100 100 100 100 100 100 100 100 100 100 87 84 100 100 94 55 16 0 0 0 0 3 10
0 0 0 0 0 0 0 0 0 0 0 0 0 0 0 0 3 6 39 68 90 90 87 84 90 77 84 94 100 100 100 100 100 100 100 94 10 16 74 97 100 81 55 23 10 3 0 0 0
0 0 0 0 0 0 0 0 0 0 0 0 0 0 0 0 0 3 6 35 81 87 94 77 61 55 42 45 39 74 71 94 97 97 97 58 0 0 16 13 87 71 65 6 0 0 0 0 0
0 0 0 0 0 0 0 0 0 0 0 0 0 0 0 0 0 0 0 0 26 68 77 90 68 42 23 16 10 19 13 35 65 71 81 48 3 0 0 0 6 6 3 0 0 0 0 0 0
0 0 0 0 0 0 0 0 0 0 0 0 0 0 0 0 0 0 0 0 0 35 65 87 84 61 29 13 3 3 0 6 19 13 35 19 0 0 0 0 0 0 0 0 0 0 0 0 0
0 0 0 0 0 0 0 0 0 0 0 0 0 0 0 0 0 0 0 0 0 0 13 55 65 74 52 16 3 0 0 0 0 6 13 13 0 0 0 0 0 0 0 0 0 0 0 0 0
0 0 0 0 0 0 0 0 0 0 0 0 0 0 0 0 0 0 0 0 0 0 0 0 26 39 52 13 3 3 0 0 0 0 0 0 0 0 0 0 0 0 0 0 0 0 0 0 0
0 0 0 0 0 0 0 0 0 0 0 0 0 0 0 0 0 0 0 0 0 0 0 0 0 16 35 29 10 6 0 0 0 0 0 0 0 0 0 0 0 0 0 0 0 0 0 0 0
0 0 0 0 0 0 0 0 0 0 0 0 0 0 0 0 0 0 0 0 0 0 0 0 0 0 6 19 23 13 10 3 3 0 0 0 0 0 0 0 0 0 0 0 0 0 0 0 0
0 0 0 0 0 0 0 0 0 0 0 0 0 0 0 0 0 0 0 0 0 0 0 0 0 0 0 3 6 6 3 6 6 3 0 0 0 0 0 0 0 0 0 0 0 0 0 0 0
0 0 0 0 0 0 0 0 0 0 0 0 0 0 0 0 0 0 0 0 0 0 0 0 0 0 0 0 6 10 13 10 3 3 3 0 0 0 0 0 0 0 0 0 0 0 0 0 0
0 0 0 0 0 0 0 0 0 0 0 0 0 0 0 0 0 0 0 0 0 0 0 0 0 0 0 0 0 3 3 10 10 6 3 0 0 0 0 0 0 0 0 0 0 0 0 0 0
0 0 0 0 0 0 0 0 0 0 0 0 0 0 0 0 0 0 0 0 0 0 0 0 0 0 0 0 0 3 0 3 0 0 6 3 0 0 0 0 0 0 0 0 0 0 0 0 0
0 0 0 0 0 0 0 0 0 0 0 0 0 0 0 0 0 0 0 0 0 0 0 0 0 0 0 0 0 0 0 0 0 3 6 3 0 0 0 0 0 0 0 0 0 0 0 0 0
0 0 0 0 0 0 0 0 0 0 0 0 0 0 0 0 0 0 0 0 0 0 0 0 0 0 0 0 0 0 0 0 0 0 0 0 0 0 0 0 0 0 0 0 0 0 0 0 0
0 0 0 0 0 0 0 0 0 0 0 0 0 0 0 0 0 0 0 0 0 0 0 0 0 0 0 0 0 0 0 0 0 0 0 0 0 0 0 0 0 0 0 0 0 0 0 0 0
0 0 0 0 0 0 0 0 0 0 0 0 0 0 0 0 0 0 0 0 0 0 0 0 0 0 0 0 0 0 0 0 0 0 0 0 0 0 0 0 0 0 0 0 0 0 0 0 0
0 0 0 0 0 0 0 0 0 0 0 0 0 0 0 0 0 0 0 0 0 0 0 0 0 0 0 0 0 0 0 0 0 0 0 0 0 0 0 0 0 0 0 0 0 0 0 0 0
0 0 0 0 0 0 0 0 0 0 0 0 0 0 0 0 0 0 0 0 0 0 0 0 0 0 0 0 0 0 0 0 0 0 0 0 0 0 0 0 0 0 0 0 0 0 0 0 0
0 0 0 0 0 0 0 0 0 0 0 0 0 0 0 0 0 0 0 0 0 0 0 0 0 0 0 0 0 0 0 0 0 0 0 0 0 0 0 0 0 0 0 0 0 0 0 0 0
0 0 0 0 0 0 0 0 0 0 0 0 0 0 0 0 0 0 0 0 0 0 0 0 0 0 0 0 0 0 0 0 0 0 0 0 0 0 0 0 0 0 0 0 0 0 0 0 0
0 0 0 0 0 0 0 0 0 0 0 0 0 0 0 0 0 0 0 0 0 0 0 0 0 0 0 0 0 0 0 0 0 0 0 0 0 0 0 0 0 0 0 0 0 0 0 0 0
Height
5923 5923 5923 5924 5924 5923 5922 5922 5922 5922 5923 5922 5921 5921 5920 5921 5921 5922 5920 5919 5919 5919 5920 5920 5920 5920 5920 5919 5919 5919 5918 5917 5917 5916 5915 5914 5913 5911 5910 5909 5908 5907 5906 5905 5904 5903 5903 5903 5903
5924 5924 5925 5925 5924 5924 5924 5923 5922 5922 5923 5923 5923 5922 5921 5921 5921 5920 5919 5920 5920 5920 5921 5921 5921 5921 5922 5921 5921 5921 5921 5920 5919 5918 5918 5916 5915 5913 5912 5910 5909 5908 5907 5906 5905 5904 5903 5903 5903
5924 5924 5925 5925 5924 5924 5924 5923 5923 5923 5923 5923 5923 5923 5922 5922 5921 5920 5920 5921 5921 5921 5922 5922 5922 5923 5923 5923 5923 5923 5922 5922 5921 5920 5920 5918 5917 5916 5914 5912 5911 5909 5908 5907 5905 5904 5903 5903 5903
5925 5926 5926 5926 5925 5924 5923 5923 5923 5924 5924 5924 5924 5923 5923 5923 5921 5920 5919 5921 5921 5922 5922 5923 5923 5924 5924 5924 5924 5924 5924 5923 5923 5922 5921 5920 5919 5918 5916 5914 5913 5911 5909 5908 5906 5905 5904 5903 5903
5926 5927 5927 5926 5925 5924 5923 5923 5923 5924 5925 5924 5924 5923 5923 5923 5921 5920 5920 5921 5922 5922 5923 5923 5924 5924 5924 5925 5925 5925 5925 5924 5924 5923 5922 5921 5921 5919 5918 5916 5915 5913 5912 5910 5908 5907 5906 5905 5904
5926 5926 5927 5926 5925 5924 5923 5922 5922 5924 5924 5924 5924 5923 5923 5923 5922 5920 5920 5921 5922 5922 5923 5923 5924 5924 5924 5924 5925 5925 5925 5924 5924 5923 5923 5922 5921 5921 5920 5918 5916 5915 5914 5912 5911 5910 5908 5907 5906
5926 5926 5925 5925 5925 5924 5924 5923 5922 5923 5924 5924 5924 5924 5923 5923 5922 5921 5920 5921 5922 5922 5922 5923 5923 5924 5924 5924 5924 5924 5924 5924 5924 5923 5923 5922 5921 5921 5920 5919 5918 5917 5915 5914 5913 5912 5910 5909 5908
5925 5926 5925 5924 5924 5924 5923 5922 5922 5922 5923 5924 5924 5923 5923 5923 5923 5922 5921 5921 5921 5922 5922 5922 5923 5923 5923 5923 5923 5923 5923 5923 5923 5923 5922 5922 5921 5920 5920 5919 5918 5917 5916 5915 5914 5913 5912 5911 5910
5924 5926 5924 5924 5923 5923 5922 5922 5922 5922 5922 5922 5923 5923 5922 5922 5922 5922 5921 5920 5921 5921 5921 5921 5922 5922 5922 5922 5922 5923 5923 5922 5922 5922 5922 5921 5920 5920 5919 5918 5918 5917 5916 5916 5915 5914 5913 5913 5911
5923 5924 5924 5924 5923 5922 5921 5921 5921 5920 5921 5921 5921 5921 5921 5920 5921 5921 5922 5921 5920 5920 5920 5920 5920 5920 5920 5920 5921 5921 5921 5921 5921 5921 5921 5920 5919 5919 5918 5917 5917 5916 5916 5915 5915 5914 5913 5912 5912
5921 5922 5923 5922 5921 5920 5919 5919 5919 5918 5918 5918 5919 5918 5919 5918 5918 5919 5920 5921 5920 5919 5918 5918 5918 5918 5918 5919 5919 5918 5919 5919 5919 5919 5919 5918 5917 5917 5916 5916 5915 5915 5914 5914 5914 5913 5912 5912 5911
5919 5920 5920 5920 5918 5917 5917 5916 5916 5916 5915 5915 5915 5916 5916 5916 5916 5916 5916 5918 5919 5918 5917 5917 5916 5916 5915 5915 5915 5915 5916 5916 5916 5916 5916 5916 5915 5914 5914 5913 5913 5912 5912 5912 5912 5911 5911 5910 5910
5916 5916 5916 5915 5914 5913 5912 5912 5914 5914 5912 5910 5910 5911 5912 5912 5911 5912 5912 5913 5914 5915 5916 5915 5915 5914 5913 5913 5913 5912 5913 5913 5912 5912 5912 5912 5912 5911 5910 5910 5910 5910 5910 5910 5909 5909 5908 5908 5908
5912 5911 5911 5910 5910 5909 5910 5909 5910 5910 5909 5906 5905 5904 5905 5906 5905 5906 5907 5908 5909 5910 5911 5912 5912 5911 5910 5910 5910 5909 5908 5908 5908 5908 5908 5908 5908 5907 5907 5906 5906 5906 5906 5906 5906 5905 5905 5904 5904
5908 5908 5907 5906 5906 5906 5906 5905 5904 5904 5904 5902 5900 5898 5898 5899 5899 5900 5900 5901 5902 5903 5904 5905 5905 5906 5906 5905 5905 5905 5905 5904 5904 5904 5904 5904 5903 5903 5902 5902 5902 5902 5901 5901 5901 5900 5900 5900 5900
5904 5903 5902 5901 5900 5900 5901 5899 5898 5897 5896 5894 5892 5891 5890 5890 5891 5892 5893 5893 5894 5895 5896 5897 5898 5900 5900 5900 5900 5899 5899 5899 5898 5898 5898 5898 5898 5898 5898 5898 5897 5897 5896 5896 5896 5896 5896 5895 5896
5898 5897 5896 5895 5893 5892 5892 5890 5890 5888 5886 5883 5882 5881 5881 5881 5882 5883 5884 5885 5885 5886 5887 5888 5890 5892 5893 5893 5894 5893 5893 5892 5892 5892 5892 5893 5892 5892 5892 5893 5892 5892 5891 5891 5891 5891 5891 5890 5890
5893 5891 5888 5887 5885 5884 5882 5881 5880 5877 5875 5872 5872 5872 5872 5872 5873 5874 5875 5875 5876 5876 5877 5878 5880 5882 5884 5885 5886 5886 5886 5885 5885 5885 5886 5886 5886 5885 5885 5885 5886 5887 5886 5885 5885 5885 5885 5884 5884
5886 5884 5882 5879 5877 5876 5873 5871 5869 5866 5863 5862 5861 5861 5862 5863 5864 5865 5865 5865 5865 5866 5867 5868 5869 5871 5873 5875 5876 5878 5878 5878 5878 5878 5878 5878 5878 5878 5878 5878 5879 5879 5879 5879 5879 5879 5878 5878 5878
5879 5878 5876 5873 5870 5868 5865 5862 5860 5856 5854 5852 5851 5851 5851 5851 5852 5853 5853 5853 5854 5855 5856 5857 5858 5860 5862 5864 5866 5868 5869 5869 5870 5870 5869 5869 5869 5869 5869 5870 5870 5871 5871 5872 5872 5872 5871 5871 5871
5873 5871 5869 5867 5864 5861 5858 5854 5850 5846 5844 5841 5839 5838 5837 5837 5838 5839 5840 5841 5843 5844 5845 5846 5848 5849 5851 5853 5855 5857 5859 5860 5860 5860 5859 5859 5859 5860 5861 5861 5862 5863 5863 5863 5864 5864 5864 5863 5863
5868 5866 5863 5861 5858 5855 5852 5847 5842 5837 5834 5831 5828 5826 5824 5824 5824 5825 5827 5829 5830 5832 5834 5836 5837 5839 5841 5843 5845 5847 5849 5850 5851 5851 5851 5850 5849 5850 5851 5851 5852 5853 5854 5854 5855 5856 5856 5856 5856
5863 5860 5857 5854 5851 5848 5844 5839 5835 5830 5825 5822 5818 5816 5813 5812 5812 5813 5815 5817 5819 5821 5823 5826 5828 5830 5832 5834 5837 5839 5841 5842 5843 5844 5844 5842 5840 5839 5839 5840 5841 5843 5844 5845 5846 5847 5847 5847 5848
5859 5855 5852 5848 5845 5841 5837 5832 5827 5822 5818 5814 5810 5806 5803 5802 5800 5801 5804 5806 5808 5811 5813 5816 5819 5821 5823 5826 5829 5831 5833 5835 5836 5836 5836 5835 5834 5833 5832 5832 5833 5833 5835 5837 5838 5838 5839 5839 5840
5855 5852 5848 5843 5839 5835 5831 5826 5822 5816 5812 5807 5803 5799 5795 5793 5791 5792 5794 5797 5799 5802 5805 5808 5811 5813 5816 5818 5821 5823 5825 5827 5828 5829 5829 5829 5828 5827 5827 5826 5825 5825 5827 5828 5829 5830 5830 5831 5831
5852 5849 5846 5841 5836 5832 5827 5822 5819 5813 5807 5802 5798 5793 5789 5786 5784 5785 5786 5789 5792 5795 5799 5801 5804 5806 5808 5811 5813 5815 5817 5819 5820 5821 5821 5821 5821 5820 5819 5819 5817 5817 5818 5819 5821 5822 5822 5823 5824
5849 5845 5842 5839 5834 5830 5826 5821 5816 5811 5806 5801 5796 5791 5786 5783 5780 5780 5782 5784 5786 5789 5792 5794 5797 5799 5801 5804 5806 5808 5810 5811 5811 5812 5812 5812 5812 5812 5812 5811 5810 5809 5809 5810 5812 5813 5814 5815 5816
5848 5844 5841 5837 5833 5829 5825 5821 5817 5812 5806 5801 5796 5791 5786 5783 5780 5779 5779 5780 5782 5784 5786 5788 5790 5793 5795 5797 5800 5801 5802 5803 5803 5803 5803 5803 5803 5803 5803 5803 5802 5802 5802 5802 5803 5805 5806 5806 5807
5847 5844 5840 5837 5833 5830 5826 5824 5817 5812 5807 5803 5798 5793 5789 5785 5782 5780 5780 5780 5780 5781 5782 5783 5785 5787 5789 5791 5793 5794 5794 5795 5794 5794 5794 5794 5794 5794 5795 5794 5794 5794 5794 5794 5795 5796 5797 5798 5799
5848 5845 5841 5838 5835 5831 5828 5827 5819 5815 5811 5807 5802 5798 5794 5791 5788 5786 5784 5782 5781 5781 5781 5782 5782 5784 5785 5786 5787 5788 5788 5788 5787 5787 5787 5787 5787 5787 5787 5786 5786 5786 5786 5786 5787 5788 5788 5789 5790
Wind_Speed
4 4 4 4 2 0 2 3 5 7 8 8 8 7 6 5 3 3 5 7 7 8 8 9 10 10 10 11 11 12 13 15 16 17 17 17 16 15 13 12 10 8 7 6 5 3 2 2 4
4 4 3 1 1 2 1 2 4 5 6 6 6 5 6 6 3 1 3 5 6 7 7 8 8 8 9 9 10 10 11 12 13 14 15 16 16 16 15 13 12 10 8 7 6 5 4 3 4
5 5 4 2 3 2 1 2 3 4 5 5 4 4 5 6 3 1 1 4 4 5 6 6 7 7 7 7 7 8 8 9 10 11 13 14 15 15 14 14 13 12 11 9 7 7 6 6 5
6 6 4 1 1 1 1 1 2 3 3 4 4 3 3 4 3 1 1 3 3 4 4 5 5 6 6 5 5 5 5 5 6 7 9 11 12 13 13 13 13 13 12 11 10 9 9 9 8
4 2 1 2 3 3 2 2 2 4 4 4 4 3 3 4 4 2 1 2 3 2 2 3 4 5 5 5 4 3 2 0 2 3 4 6 8 9 11 11 11 11 12 12 11 11 11 10 10
3 2 2 2 1 2 2 2 3 4 5 4 4 4 4 5 5 4 3 2 2 2 2 2 3 4 5 5 5 6 5 4 4 4 4 4 4 5 6 8 9 9 10 11 12 12 12 11 11
4 3 4 4 3 2 3 2 2 1 3 2 1 2 3 4 5 5 4 3 1 2 3 3 4 5 5 5 6 7 7 7 7 6 6 6 6 5 4 4 6 7 7 9 10 11 11 11 10
7 6 6 8 7 5 7 7 6 4 2 2 3 2 1 1 3 4 2 2 1 1 2 4 5 6 6 6 7 7 8 8 8 8 8 8 8 7 6 5 5 5 5 5 7 8 9 9 9
11 10 9 9 11 9 9 10 11 10 8 7 7 7 6 4 2 1 0 1 1 1 2 3 4 6 7 7 8 8 9 10 10 9 9 10 9 9 9 8 7 6 5 4 4 5 6 7 8
15 13 12 13 13 12 12 13 13 14 13 11 10 10 10 9 7 6 4 4 4 4 4 4 4 5 6 7 8 9 10 11 11 11 11 12 12 11 11 11 10 8 8 7 6 5 5 5 6
15 14 14 15 14 15 15 16 17 17 18 16 14 13 12 12 12 11 10 8 8 9 9 8 7 7 7 7 7 9 10 12 13 13 14 15 16 16 15 15 14 12 11 10 10 9 8 7 6
15 14 15 17 19 20 20 19 19 20 21 22 20 19 18 17 17 16 15 14 13 12 12 11 10 10 10 9 9 9 11 12 13 14 16 17 19 19 18 18 17 16 15 14 14 13 12 10 9
16 16 16 17 20 22 23 23 22 21 23 24 25 24 23 23 22 20 19 18 17 15 14 13 12 12 12 11 11 12 12 12 13 15 16 18 19 21 21 21 20 19 18 17 17 17 16 14 12
18 19 20 22 23 24 24 24 25 24 24 27 28 29 28 26 26 24 23 21 20 19 17 15 14 14 14 14 14 14 14 14 14 15 16 18 19 21 23 23 22 22 21 20 20 20 19 18 16
22 22 24 25 26 26 26 26 27 27 27 29 31 32 32 31 30 29 27 26 25 23 21 20 19 17 17 17 17 16 17 17 17 17 18 19 20 21 22 24 24 25 25 24 23 23 22 21 20
23 24 26 27 29 29 29 29 29 30 30 31 33 34 35 35 34 33 32 32 31 29 28 26 24 22 21 21 20 20 20 21 21 20 20 21 22 23 23 24 25 25 26 26 25 25 25 25 24
26 27 28 30 30 30 31 31 31 33 33 33 36 37 38 38 37 37 36 35 35 35 34 32 30 28 27 25 24 23 23 24 25 24 24 23 24 25 25 25 25 25 26 26 26 25 25 26 26
26 27 29 30 30 31 32 34 35 37 39 39 40 41 41 40 38 39 39 39 39 39 39 38 36 34 33 31 30 28 27 28 29 29 27 26 27 27 28 28 27 26 26 26 26 25 25 26 27
26 26 27 29 30 31 32 34 36 40 43 44 44 44 45 44 42 41 41 41 41 41 41 41 40 38 37 36 34 33 31 31 32 32 32 30 30 30 30 30 28 27 27 27 27 27 27 27 29
23 22 23 24 26 27 30 32 35 39 42 45 47 48 48 47 43 41 41 42 41 41 42 42 41 40 39 38 36 34 33 33 33 33 33 33 33 32 31 31 30 28 28 28 26 27 27 28 28
20 20 20 21 24 26 29 32 34 38 41 44 46 47 48 48 46 43 42 42 42 42 42 41 40 40 39 38 36 35 34 33 32 32 31 32 32 30 31 32 31 29 29 29 27 26 27 27 27
20 21 22 24 25 27 29 32 33 35 38 41 44 45 46 47 45 43 42 42 41 41 41 41 40 40 39 38 36 34 33 31 31 30 31 31 31 30 31 31 31 31 31 29 27 26 26 26 25
18 20 22 23 24 26 28 31 31 32 33 35 39 42 42 43 43 42 41 41 40 40 40 40 39 39 38 37 35 33 31 30 29 29 29 30 30 32 33 33 34 32 30 28 26 26 25 25 25
17 19 19 19 20 22 24 26 26 26 27 28 31 34 38 38 37 37 37 37 37 38 38 38 38 37 37 36 35 33 31 30 29 28 29 29 31 32 34 33 33 32 29 27 26 25 25 25 26
16 17 17 17 18 18 19 20 22 23 24 24 25 26 29 33 33 32 32 32 33 34 35 36 36 36 36 35 35 34 33 32 31 31 31 32 32 34 35 35 35 32 29 26 25 25 24 25 26
15 14 14 14 15 15 17 18 19 20 21 21 21 21 22 24 26 27 27 28 29 31 33 35 36 36 36 36 36 36 36 35 35 35 36 36 35 34 34 35 34 33 30 27 24 24 24 26 28
13 13 13 13 14 14 14 16 17 19 19 18 17 18 17 14 14 16 18 20 23 27 30 32 34 36 37 37 37 37 38 39 39 40 40 39 37 35 34 33 32 31 29 28 27 26 28 29 30
13 13 13 14 14 14 13 14 14 16 17 17 17 17 15 13 9 7 9 12 16 20 23 27 30 33 34 35 37 38 39 40 41 41 41 39 38 36 33 33 32 31 32 33 32 30 31 32 32
15 14 13 13 13 13 13 15 17 19 20 19 18 18 16 14 11 6 3 6 9 12 14 17 21 25 28 30 32 34 35 36 36 36 35 34 33 32 31 31 31 31 32 32 32 32 33 34 34
17 16 15 15 14 14 14 17 20 20 20 21 21 20 19 17 15 13 10 6 2 1 2 4 7 10 14 17 19 21 22 23 24 25 25 26 26 27 27 27 26 26 26 26 27 28 29 30 31
Wind_Direction
67 83 89 81 77 25 352 27 43 51 59 55 51 49 52 59 65 86 102 96 93 97 99 102 100 97 95 92 89 83 78 74 72 71 72 72 70 67 67 68 71 76 80 82 79 81 97 181 197
57 59 69 68 239 238 322 15 31 34 47 56 52 40 38 48 51 86 123 115 103 103 109 113 112 108 105 102 99 91 82 75 72 70 70 69 68 66 66 67 69 73 77 82 81 79 90 122 164
56 57 46 338 256 252 285 343 16 31 30 36 40 35 31 38 42 287 184 138 125 111 115 123 127 124 120 118 113 104 90 80 73 71 68 67 65 62 61 61 62 64 67 69 72 74 81 95 120
68 61 48 29 96 121 355 338 5 35 40 31 35 36 38 36 36 349 230 161 148 128 122 127 138 145 143 142 139 124 104 86 71 65 64 65 63 60 57 56 55 55 57 61 65 71 78 87 99
98 78 17 17 65 63 51 31 23 46 55 54 50 39 52 50 48 38 51 151 159 160 148 143 151 160 170 178 189 200 205 157 33 29 35 48 55 56 55 54 52 50 49 54 60 67 74 81 89
176 230 285 306 338 13 15 16 16 63 75 69 60 48 53 61 68 63 55 73 147 198 215 202 192 188 191 203 218 234 252 267 287 310 324 337 4 29 38 43 48 48 46 48 52 58 67 75 81
220 245 263 291 293 279 280 289 294 25 103 107 59 53 56 69 78 68 59 61 94 224 250 252 247 233 222 221 230 243 256 269 281 292 301 304 308 321 342 3 23 36 43 47 49 51 55 62 71
233 234 251 278 284 255 259 274 281 280 267 246 265 280 304 84 90 88 71 73 85 244 266 270 269 264 251 242 242 249 257 266 275 283 290 293 295 300 306 315 328 355 17 35 41 44 46 49 54
244 237 242 261 275 273 265 269 279 281 281 275 265 265 265 260 230 168 123 299 231 234 269 282 280 275 268 260 256 257 261 265 270 274 279 283 286 292 295 297 301 308 321 340 4 21 30 34 38
252 249 249 259 269 268 270 273 278 285 284 278 270 262 263 265 258 248 244 260 269 262 255 257 263 267 269 273 272 269 269 270 270 270 271 274 279 284 287 290 293 293 294 300 308 322 340 356 5
263 261 259 260 262 261 265 271 272 277 280 278 274 267 262 267 269 266 262 261 264 269 269 266 263 261 260 263 269 273 274 272 271 269 268 270 274 278 281 283 285 286 287 289 291 295 302 313 324
266 263 256 257 260 265 269 269 268 272 277 276 272 269 268 269 269 269 268 265 261 263 268 272 271 271 273 274 270 271 274 274 272 270 268 268 269 273 276 278 281 283 286 289 290 289 289 294 304
266 265 260 255 256 260 265 267 267 268 269 271 272 271 269 270 270 268 267 264 260 257 259 264 267 267 269 271 273 275 275 274 273 270 267 267 267 269 271 272 275 278 281 285 288 287 284 284 291
261 260 256 255 257 260 264 268 270 268 267 268 270 272 271 271 270 267 265 262 259 254 252 251 253 259 265 268 271 275 279 280 276 271 267 264 264 266 266 266 267 271 274 277 281 282 282 282 284
263 265 265 265 265 266 267 267 269 269 268 267 267 268 270 269 269 268 267 266 264 261 257 251 248 249 258 266 271 274 277 278 277 273 268 264 261 260 262 263 265 267 270 273 277 279 279 277 275
273 273 275 275 275 273 271 269 268 267 266 264 263 263 264 265 266 267 267 268 268 265 263 261 259 257 257 261 267 272 273 274 274 270 266 264 262 259 257 258 261 264 268 271 273 274 274 271 271
281 280 278 278 278 276 274 271 269 265 263 263 263 261 260 261 263 264 265 266 267 268 267 265 264 264 263 264 265 265 267 270 271 270 266 264 263 261 259 257 257 259 263 267 268 269 270 270 271
280 280 280 279 278 277 274 272 269 265 266 269 266 263 260 260 263 265 265 265 264 265 266 266 266 265 264 264 264 263 263 265 268 267 265 263 262 262 262 260 258 257 259 262 264 266 267 267 269
281 280 279 280 280 279 277 275 272 271 271 271 269 266 264 264 265 266 266 265 263 262 262 263 264 263 263 263 263 262 262 262 264 265 264 262 260 259 260 261 260 258 259 261 262 263 265 267 267
292 291 288 286 285 284 283 282 280 277 275 275 273 269 266 267 266 263 262 262 261 260 259 259 260 260 261 261 261 261 260 259 260 261 262 263 260 258 257 257 259 257 257 260 260 260 265 268 267
300 297 293 289 286 286 287 287 287 283 279 277 275 271 268 266 264 260 258 256 256 255 256 256 256 256 257 258 257 257 256 256 256 258 260 263 263 261 258 256 258 257 256 256 258 260 264 269 267
300 299 295 292 289 288 288 287 289 286 281 277 275 273 269 268 266 260 255 252 250 250 251 252 252 253 253 254 254 253 251 251 252 255 259 265 264 264 262 261 260 261 259 256 257 261 265 268 265
308 305 301 297 294 291 290 288 289 287 284 280 275 273 271 269 266 259 254 250 248 247 247 247 248 249 250 251 250 249 247 248 251 255 259 264 267 272 268 270 268 265 266 260 260 263 265 266 265
316 315 311 307 303 300 300 298 297 294 291 287 281 276 272 269 265 260 256 251 247 245 243 243 244 244 245 246 246 246 246 248 252 258 262 267 271 273 275 275 275 272 269 265 265 264 264 264 266
329 327 325 321 316 314 317 315 312 308 305 298 292 287 279 273 273 270 266 258 251 246 245 244 243 242 242 242 243 244 247 250 255 261 266 271 273 273 275 276 275 271 267 265 263 261 261 265 264
338 338 337 337 335 334 334 332 330 328 325 319 312 309 300 291 284 277 273 265 258 253 249 247 246 243 242 242 243 246 250 254 260 265 270 273 275 274 273 274 270 267 265 260 258 257 257 262 261
352 354 354 357 357 353 351 351 349 343 341 340 338 334 331 320 303 285 278 269 261 257 254 251 250 248 246 246 247 250 255 259 264 268 272 274 274 273 272 269 269 266 261 259 258 258 257 259 258
6 8 14 14 12 11 12 13 14 10 9 7 7 3 4 6 356 321 290 273 264 262 259 257 255 255 253 253 253 256 259 263 267 270 272 273 272 270 268 267 265 263 262 259 257 255 256 257 257
24 24 26 26 29 30 33 37 31 29 26 25 25 25 30 28 31 27 342 293 276 270 264 261 260 259 258 257 260 262 264 266 268 270 270 271 269 267 267 266 265 262 260 259 256 255 255 255 255
36 37 40 41 41 41 44 47 42 40 39 40 40 42 46 45 46 51 49 46 37 287 275 270 269 264 261 262 264 265 266 268 269 270 269 268 267 268 268 268 266 264 263 258 252 251 248 246 248